User: anonymous   Login
Location: Unspecified
(0.0000°N, 0.0000°E)
Time: 22:38:21
(UTC+00:00)
Language:

Orbcomm D8 (FM36) - Orbit

View from above orbital plane
View from above orbital plane
View from above satellite
View from above satellite

Ground track
Ground track

The orbit data is extracted from the following two-line orbital elements,

1 25984U 99065E   24147.64918644  .00001863  00000-0  68820-3 0  9992
2 25984  45.0382 119.3091 0001933 180.6529 179.4316 14.35666141279414
Epoch (UTC): 26 May 2024 15:34:49
Eccentricity: 0.0001933
inclination: 45.0382°
perigee height: 771 km
apogee height: 774 km
right ascension of ascending node: 119.3091°
argument of perigee: 180.6529°
revolutions per day: 14.35666141
mean anomaly at epoch: 179.4316°
orbit number at epoch: 27941

The dashed part of the orbit path shows where the satellite is in the earth's shadow,  

DLR